EW1109 Weather Reports


Display with metric or nautical units.
time (UTC)temp
F
wind
direction
speed
MPH
gust
MPH
rain 1hr
in
rain 24hr
in
rain mn
in
humidity
%
barometer
mb
20260508231515 49 313 0.0 0.0 0.00 0.00 0.00 53 1005.3
20260508230016 50 313 0.0 1.0 0.00 0.00 0.00 52 1005.4
20260508224506 51 263 0.0 5.0 0.00 0.00 0.00 52 1005.6
20260508223003 52 248 0.0 5.0 0.00 0.00 0.00 51 1005.9
20260508221520 52 225 1.0 7.0 0.00 0.00 0.00 49 1005.8
20260508220004 53 233 1.0 7.0 0.00 0.00 0.00 50 1005.9
20260508214503 55 239 1.0 6.0 0.00 0.00 0.00 48 1006.0
20260508213056 54 249 0.0 7.0 0.00 0.00 0.00 49 1006.0
20260508211505 54 220 1.0 6.0 0.00 0.00 0.00 49 1006.0
20260508210108 54 244 2.0 7.0 0.00 0.00 0.00 47 1006.2
20260508204556 50 257 1.0 10.0 0.00 0.00 0.00 46 1006.4
20260508203051 49 259 2.0 6.0 0.00 0.00 0.00 9 1006.6
20260508201535 50 228 2.0 8.0 0.00 0.00 0.00 13 1006.8
20260508200036 49 257 1.0 6.0 0.00 0.00 0.00 18 1007.0
20260508194526 48 250 1.0 7.0 0.00 0.00 0.00 20 1007.3
20260508193022 47 253 1.0 7.0 0.00 0.00 0.00 13 1007.6
20260508191519 46 246 2.0 6.0 0.00 0.00 0.00 4 1007.8
20260508190013 45 256 3.0 8.0 0.00 0.00 0.00 8 1007.9
20260508184509 46 253 3.0 9.0 0.00 0.00 0.00 13 1008.0
20260508183004 45 229 3.0 9.0 0.00 0.00 0.00 12 1008.2
20260508181548 45 197 5.0 12.0 0.00 0.00 0.00 13 1008.4
20260508180044 45 229 3.0 9.0 0.00 0.00 0.00 12 1008.4
20260508174541 46 218 3.0 9.0 0.00 0.00 0.00 17 1008.5
20260508173035 47 246 3.0 8.0 0.00 0.00 0.00 21 1008.4
20260508171533 46 257 3.0 8.0 0.00 0.00 0.00 30 1008.6
20260508170026 46 246 2.0 9.0 0.00 0.00 0.00 26 1008.7
20260508164527 45 234 3.0 9.0 0.00 0.00 0.00 30 1008.8
20260508163019 45 251 3.0 8.0 0.00 0.00 0.00 33 1008.9
20260508161503 45 235 3.0 10.0 0.00 0.00 0.00 32 1009.0
20260508160059 46 236 2.0 9.0 0.00 0.00 0.00 27 1009.1
20260508154554 45 261 2.0 9.0 0.00 0.00 0.00 28 1009.1
20260508153049 45 248 2.0 9.0 0.00 0.00 0.00 29 1009.3
20260508151545 45 250 2.0 9.0 0.00 0.00 0.00 31 1009.3
20260508150042 44 251 2.0 8.0 0.00 0.00 0.00 24 1009.4
20260508144537 44 256 2.0 7.0 0.00 0.00 0.00 25 1009.5
20260508143031 44 269 0.0 7.0 0.00 0.00 0.00 9 1009.6
20260508141527 43 235 2.0 8.0 0.00 0.00 0.00 3 1009.7
20260508140008 42 250 0.0 8.0 0.00 0.00 0.00 100 1009.8
20260508134505 42 227 3.0 9.0 0.00 0.00 0.00 100 1009.8
20260508133112 42 215 1.0 6.0 0.00 0.00 0.00 100 1009.8
20260508133002 42 215 2.0 6.0 0.00 0.00 0.00 100 1009.8
20260508131600 42 261 1.0 6.0 0.00 0.00 0.00 100 1009.8
20260508130108 42 183 0.0 7.0 0.00 0.00 0.00 100 1009.8
20260508124549 42 202 0.0 4.0 0.00 0.00 0.00 100 1009.8
20260508123042 41 94 0.0 0.0 0.00 0.00 0.00 100 1009.7
20260508121538 38 157 0.0 4.0 0.00 0.00 0.00 100 1009.7
20260508120022 36 87 0.0 0.0 0.00 0.00 0.00 100 1009.6
20260508114517 36 200 0.0 0.0 0.00 0.00 0.00 100 1009.6
20260508113013 35 200 0.0 0.0 0.00 0.00 0.00 100 1009.4
20260508111513 35 200 0.0 0.0 0.00 0.00 0.00 100 1009.7
20260508110004 35 200 0.0 0.0 0.00 0.00 0.00 100 1009.7
20260508104623 35 200 0.0 0.0 0.00 0.00 0.00 100 1009.7
20260508103056 34 200 0.0 0.0 0.00 0.00 0.00 100 1009.6
20260508101552 34 200 0.0 0.0 0.00 0.00 0.00 100 1009.6
20260508100030 35 200 0.0 0.0 0.00 0.00 0.00 100 1009.8
20260508094526 35 200 0.0 0.0 0.00 0.00 0.00 100 1009.8
20260508093010 35 200 0.0 0.0 0.00 0.00 0.00 100 1010.0
20260508091504 36 213 0.0 0.0 0.00 0.00 0.00 100 1010.1
20260508090110 36 213 0.0 0.0 0.00 0.00 0.00 100 1010.1
20260508090001 36 213 0.0 0.0 0.00 0.00 0.00 100 1010.1
20260508084556 37 213 0.0 0.0 0.00 0.00 0.00 100 1010.2
20260508083107 37 216 0.0 0.0 0.00 0.00 0.00 100 1010.4
20260508081556 37 216 0.0 0.0 0.00 0.00 0.00 100 1010.2
20260508080044 37 216 0.0 0.0 0.00 0.00 0.00 100 1010.3
20260508074539 37 216 0.0 0.0 0.00 0.00 0.00 100 1010.3
20260508073018 38 216 0.0 0.0 0.00 0.00 0.00 100 1010.4
20260508071513 38 216 0.0 0.0 0.00 0.00 0.00 100 1010.7
20260508070140 39 216 0.0 0.0 0.00 0.00 0.00 100 1010.7
20260508064606 39 223 0.0 0.0 0.00 0.00 0.00 100 1010.8
20260508063049 38 204 0.0 2.0 0.00 0.00 0.00 100 1011.0
20260508061548 38 157 0.0 2.0 0.00 0.00 0.00 100 1011.0
20260508060040 38 109 0.0 0.0 0.00 0.00 0.00 100 1011.2
20260508054534 39 225 0.0 3.0 0.00 0.00 0.00 100 1011.4
20260508053030 40 252 0.0 5.0 0.00 0.00 0.00 100 1011.5
20260508051526 40 253 1.0 7.0 0.00 0.00 0.00 100 1011.8
20260508050008 40 252 0.0 8.0 0.00 0.00 0.00 100 1011.9
20260508044505 38 263 4.0 9.0 0.00 0.00 0.00 100 1012.2
20260508043105 35 93 0.0 0.0 0.00 0.00 0.00 100 1011.5
20260508041555 36 93 0.0 2.0 0.00 0.00 0.00 100 1011.4
20260508040050 36 204 0.0 4.0 0.00 0.00 0.00 100 1011.6
20260508034547 37 208 0.0 2.0 0.00 0.00 0.00 100 1011.4
20260508033042 37 191 0.0 1.0 0.00 0.00 0.00 5 1011.4
20260508031545 38 175 0.0 5.0 0.00 0.00 0.00 6 1011.6
20260508030010 38 105 0.0 0.0 0.00 0.00 0.00 2 1011.4
20260508024505 38 171 0.0 0.0 0.00 0.00 0.00 100 1011.6
20260508023049 37 161 0.0 2.0 0.00 0.00 0.00 100 1011.5
20260508021545 37 204 0.0 0.0 0.00 0.00 0.00 100 1011.4
20260508020041 37 231 0.0 0.0 0.00 0.00 0.00 100 1011.3
20260508014537 38 231 0.0 0.0 0.00 0.00 0.00 100 1011.3
20260508013032 39 282 0.0 0.0 0.00 0.00 0.00 100 1011.2
20260508011529 39 282 0.0 0.0 0.00 0.00 0.00 100 1011.4
20260508010026 39 281 0.0 0.0 0.00 0.00 0.00 100 1011.5
20260508004518 40 315 0.0 0.0 0.00 0.00 0.00 100 1011.4
20260508003002 40 296 3.0 6.0 0.00 0.00 0.00 100 1011.6
20260508001558 40 246 0.0 5.0 0.00 0.00 0.00 26 1011.3
20260508000054 40 261 0.0 5.0 0.00 0.00 0.00 39 1011.2
20260507234551 40 252 0.0 8.0 0.00 0.00 0.00 46 1011.2
20260507233045 41 160 0.0 5.0 0.00 0.00 0.00 45 1011.0